Location: Kouchibouguac National Park
(46.8081°N, 64.9088°W)
Time: 11:38:41
(UTC-04:00)

Amateur Radio Satellites - All Passes

Search period start: 15 December 2017 11:08
Search period end: 16 December 2017 11:08
Location: Kouchibouguac National Park, 46.8081°N, 64.9088°W

Satellite Date Start Highest point End Downlink Frequencies (MHz)
Time Altitude Azimuth
LO-87 15 Dec 11:18:43 11:22:04 39° 99° (E) 11:25:25 145.935 - 145.965
Oscar 19 15 Dec 11:22:24 11:25:21 16° 56° (NE) 11:28:18 437.125/150
NANOSAT C BR1 15 Dec 11:25:50 11:30:00 82° 77° (ENE) 11:34:13 145.865
NO-84 15 Dec 11:34:29 11:37:41 30° 19° (NNE) 11:41:06 435.350 FM
BUGSAT 1 15 Dec 11:37:54 11:41:10 24° 66° (ENE) 11:44:26 437.445
EO-79 15 Dec 11:41:43 11:45:52 60° 259° (W) 11:50:01 145.935-145.965
ESTCUBE 1 15 Dec 11:43:32 11:48:02 56° 100° (E) 11:52:30 437.505/2401.250
nSIGHT-1 15 Dec 11:58:19 12:01:27 55° 148° (SSE) 12:04:37 .
POLYITAN 1 15 Dec 12:05:22 12:09:11 34° 263° (W) 12:13:01 437.675
Gurwin Techsat 1B 15 Dec 12:07:57 12:12:23 28° 62° (ENE) 12:16:51 435.225
SPROUT 15 Dec 12:13:19 12:17:02 29° 95° (E) 12:20:44 437.525
AO-91 15 Dec 12:14:40 12:18:58 34° 70° (ENE) 12:22:54 145.960
QB50P2 15 Dec 12:32:24 12:35:13 17° 269° (W) 12:38:03 145.880/145.840
DUCHIFAT 1 15 Dec 12:35:45 12:39:00 22° 267° (W) 12:42:16 145.980
ISS 15 Dec 12:42:43 12:46:02 87° 342° (NNW) 12:49:20 437.550
AO-7 15 Dec 12:52:27 12:58:54 26° 48° (NE) 13:05:23 .
LO-87 15 Dec 12:52:56 12:55:10 16° 296° (WNW) 12:57:24 145.935 - 145.965
Oscar 19 15 Dec 12:58:48 13:03:57 88° 258° (WSW) 13:09:09 437.125/150
NANOSAT C BR1 15 Dec 13:05:48 13:06:17 10° 273° (W) 13:06:46 145.865
NO-84 15 Dec 13:11:30 13:15:12 73° 217° (SW) 13:19:11 435.350 FM
BUGSAT 1 15 Dec 13:12:46 13:16:24 32° 263° (W) 13:20:03 437.445
VELOX 1 15 Dec 13:13:52 13:18:19 73° 104° (ESE) 13:22:41 145.980
YUBILEINY 15 Dec 13:15:22 13:23:33 40° 68° (ENE) 13:31:37 435.215
ESTCUBE 1 15 Dec 13:21:16 13:24:25 19° 299° (WNW) 13:27:34 437.505/2401.250
RS-15 15 Dec 13:27:51 13:37:55 31° 103° (ESE) 13:47:55 29.354- 29.394
nSIGHT-1 15 Dec 13:34:41 13:37:45 41° 347° (NNW) 13:40:51 .
Gurwin Techsat 1B 15 Dec 13:46:58 13:52:06 47° 261° (W) 13:57:14 435.225
50 SAT 15 Dec 13:47:46 13:50:41 34° 98° (E) 13:53:35 437.505
SPROUT 15 Dec 13:49:12 13:52:53 29° 293° (WNW) 13:56:33 437.525
UKube-1 15 Dec 13:50:13 13:53:47 25° 95° (E) 13:57:20 .
AO-91 15 Dec 13:51:15 13:55:25 29° 264° (W) 13:59:16 145.960
DX 1 15 Dec 14:07:08 14:11:27 58° 101° (ESE) 14:15:43 434.975-435.025
M-CUBED/EXP-1 PRIME 15 Dec 14:08:21 14:12:33 45° 64° (ENE) 14:16:58 437.505
ITAMSAT 1 15 Dec 14:13:21 14:17:53 31° 64° (ENE) 14:22:27 435.822/435.867
ISS 15 Dec 14:19:42 14:22:46 35° 354° (N) 14:25:51 437.550
ITUPSAT 1 15 Dec 14:38:32 14:40:54 14° 89° (E) 14:43:15 437.325
Oscar 19 15 Dec 14:41:57 14:44:01 12° 273° (W) 14:46:05 437.125/150
AO-7 15 Dec 14:42:23 14:50:42 90° 69° (ENE) 14:59:06 .
NO-84 15 Dec 14:50:14 14:52:00 13° 233° (SW) 14:53:49 435.350 FM
VELOX 1 15 Dec 14:51:47 14:54:10 15° 301° (WNW) 14:56:34 145.980
DOVE 4 15 Dec 15:01:17 15:04:52 19° 61° (ENE) 15:08:23 437.250
CUBESAT XI-V 15 Dec 15:08:47 15:09:25 10° 86° (E) 15:10:04 437.345
nSIGHT-1 15 Dec 15:11:24 15:14:25 35° 7° (N) 15:17:26 .
YUBILEINY 15 Dec 15:12:10 15:20:39 54° 270° (W) 15:29:03 435.215
MOZHAYETS 4 15 Dec 15:17:12 15:21:40 47° 99° (E) 15:26:08
SO-50 15 Dec 15:18:51 15:23:01 40° 119° (ESE) 15:27:15 436.795
50 SAT 15 Dec 15:20:36 15:22:21 14° 296° (WNW) 15:24:05 437.505
UKube-1 15 Dec 15:25:56 15:29:52 35° 292° (WNW) 15:33:47 .
RS-15 15 Dec 15:36:43 15:49:07 86° 307° (NW) 16:01:22 29.354- 29.394
M-CUBED/EXP-1 PRIME 15 Dec 15:43:37 15:47:06 23° 262° (W) 15:50:44 437.505
DX 1 15 Dec 15:44:23 15:47:12 17° 299° (WNW) 15:50:01 434.975-435.025
BEESAT 15 Dec 15:45:33 15:50:17 59° 101° (ESE) 15:54:58 436.000
CUTE-I 15 Dec 15:48:46 15:50:30 12° 52° (NE) 15:52:14 437.470
ITAMSAT 1 15 Dec 15:52:22 15:57:14 40° 262° (W) 16:02:08 435.822/435.867
ISS 15 Dec 15:56:32 15:59:43 43° 14° (NNE) 16:02:53 437.550
O/OREOS (USA 219) 15 Dec 16:08:34 16:09:20 10° 40° (NE) 16:10:05 437.305
XW-2F 15 Dec 16:10:28 16:11:24 11° 60° (ENE) 16:12:20 145.980 - 146.000
ITUPSAT 1 15 Dec 16:14:30 16:19:17 78° 286° (WNW) 16:24:04 437.325
HO-68 15 Dec 16:23:06 16:27:44 19° 49° (NE) 16:32:21 435.675
XW-2C 15 Dec 16:24:59 16:27:25 17° 63° (ENE) 16:29:52 145.795 - 145.815
DOVE 4 15 Dec 16:36:48 16:42:03 70° 258° (WSW) 16:47:09 437.250
AO-7 15 Dec 16:38:33 16:44:32 21° 270° (W) 16:50:35 .
CUBESAT XI-V 15 Dec 16:42:46 16:47:31 85° 103° (ESE) 16:52:14 437.345
nSIGHT-1 15 Dec 16:47:39 16:50:53 89° 202° (SSW) 16:54:06 .
MOZHAYETS 4 15 Dec 16:54:58 16:58:32 22° 297° (WNW) 17:02:06
SO-50 15 Dec 16:59:30 17:03:33 32° 319° (NW) 17:07:40 436.795
KKS-1 15 Dec 17:00:36 17:04:18 26° 95° (E) 17:07:59 437.445
LilacSat-2 15 Dec 17:01:11 17:04:48 42° 71° (ENE) 17:08:27 437.200
XW-2D 15 Dec 17:14:05 17:17:47 56° 73° (ENE) 17:21:33 145.860 - 145.880
YUBILEINY 15 Dec 17:14:16 17:15:14 10° 293° (WNW) 17:16:12 435.215
NUDT-PHONESAT 15 Dec 17:14:35 17:18:00 37° 71° (ENE) 17:21:27 437.300
CUTE 1.7 + AOD 2 15 Dec 17:17:28 17:20:25 19° 63° (ENE) 17:23:25 437.475
KAITUO 1B 15 Dec 17:19:53 17:23:28 45° 72° (ENE) 17:27:07 145.475/437.950
CUTE-I 15 Dec 17:24:14 17:29:32 64° 71° (ENE) 17:34:52 437.470
BEESAT 15 Dec 17:24:14 17:27:38 20° 300° (WNW) 17:31:01 436.000
XW-2B 15 Dec 17:29:55 17:33:42 83° 74° (ENE) 17:37:33 145.730 - 145.750
ISS 15 Dec 17:33:03 17:36:17 51° 212° (SSW) 17:39:28 437.550
PCSat 15 Dec 17:36:24 17:39:45 17° 105° (ESE) 17:43:07 145.827
STARS 15 Dec 17:40:46 17:44:29 27° 95° (E) 17:48:11 437.465
XW-2F 15 Dec 17:41:08 17:44:54 77° 258° (WSW) 17:48:44 145.980 - 146.000
O/OREOS (USA 219) 15 Dec 17:45:18 17:49:46 59° 62° (ENE) 17:54:11 437.305
RS-15 15 Dec 17:52:03 18:03:27 41° 335° (NNW) 18:14:34 29.354- 29.394
ITUPSAT 1 15 Dec 17:54:35 17:56:18 12° 305° (NW) 17:58:01 437.325
XW-2C 15 Dec 17:57:36 18:01:14 45° 261° (W) 18:04:56 145.795 - 145.815
HO-68 15 Dec 18:07:10 18:14:20 75° 70° (ENE) 18:21:32 435.675
UWE-3 15 Dec 18:12:49 18:16:05 23° 65° (ENE) 18:19:21 435.000/436.395/437.385
CUBEBUG 2 15 Dec 18:14:34 18:18:29 40° 70° (ENE) 18:22:22 437.445
CUBESAT XI-V 15 Dec 18:21:47 18:24:13 14° 302° (WNW) 18:26:39 437.345
nSIGHT-1 15 Dec 18:24:40 18:26:41 16° 224° (SW) 18:28:42 .
SEEDS 15 Dec 18:26:40 18:30:48 55° 72° (ENE) 18:34:58 437.485
ZACube-1 15 Dec 18:35:37 18:38:47 22° 65° (ENE) 18:41:58 437.345
LilacSat-2 15 Dec 18:36:47 18:39:17 17° 269° (W) 18:41:48 437.200
KKS-1 15 Dec 18:36:52 18:40:56 36° 292° (WNW) 18:44:58 437.445
AAUSAT CUBESAT 2 15 Dec 18:42:41 18:46:32 37° 69° (ENE) 18:50:24 437.432
SO-50 15 Dec 18:44:10 18:45:25 11° 342° (NNW) 18:46:40 436.795
NUDT-PHONESAT 15 Dec 18:49:27 18:51:59 17° 268° (W) 18:54:33 437.300
XW-2D 15 Dec 18:50:39 18:52:19 12° 271° (W) 18:54:00 145.860 - 145.880
CUTE 1.7 + AOD 2 15 Dec 18:51:45 18:55:53 50° 261° (W) 19:00:05 437.475
Oscar 11 15 Dec 18:53:23 18:56:37 21° 64° (ENE) 18:59:52 .
KAITUO 1B 15 Dec 18:55:30 18:57:41 15° 269° (W) 18:59:55 145.475/437.950
CUTE-I 15 Dec 19:06:12 19:10:02 20° 269° (W) 19:13:53 437.470
XW-2A 15 Dec 19:06:24 19:09:42 65° 75° (ENE) 19:13:04 145.665 - 145.685
STRAND 1 15 Dec 19:07:17 19:11:38 28° 94° (E) 19:15:58 437.568
AO-73 15 Dec 19:08:05 19:11:55 39° 70° (ENE) 19:15:49 145.935
BEESAT 3 15 Dec 19:16:51 19:19:23 16° 112° (ESE) 19:21:56 437.485
STARS 15 Dec 19:16:55 19:20:51 33° 293° (WNW) 19:24:45 437.465
PCSat 15 Dec 19:17:03 19:22:27 81° 304° (WNW) 19:27:55 145.827
O/OREOS (USA 219) 15 Dec 19:25:52 19:28:41 16° 260° (W) 19:31:28 437.305
DELFI C3 15 Dec 19:36:57 19:38:31 12° 60° (ENE) 19:40:07 145.870
UWE-3 15 Dec 19:48:33 19:52:22 35° 263° (W) 19:56:13 435.000/436.395/437.385
CUBEBUG 2 15 Dec 19:52:10 19:55:17 20° 268° (W) 19:58:22 437.445
HO-68 15 Dec 19:57:09 20:02:44 24° 269° (W) 20:08:21 435.675
BEESAT 2 15 Dec 20:00:04 20:02:03 13° 110° (ESE) 20:04:02 435.950
SEEDS 15 Dec 20:04:17 20:06:49 15° 270° (W) 20:09:24 437.485
RS-15 15 Dec 20:09:22 20:20:05 34° 9° (N) 20:30:23 29.354- 29.394
ZACube-1 15 Dec 20:10:59 20:14:51 38° 263° (W) 20:18:46 437.345
AAUSAT CUBESAT 2 15 Dec 20:18:46 20:22:05 22° 267° (W) 20:25:25 437.432
FO-29 15 Dec 20:26:09 20:32:55 50° 97° (E) 20:38:52 435.910
Oscar 11 15 Dec 20:28:20 20:32:28 44° 262° (W) 20:36:39 .
AO-73 15 Dec 20:45:16 20:48:20 20° 268° (W) 20:51:26 145.935
STRAND 1 15 Dec 20:46:10 20:50:57 42° 292° (WNW) 20:55:42 437.568
BEESAT 3 15 Dec 20:52:34 20:56:30 58° 310° (NW) 21:00:28 437.485
PCSat 15 Dec 21:02:45 21:06:43 20° 325° (NW) 21:10:41 145.827
Max Valier Satellite 15 Dec 21:04:38 21:08:16 67° 74° (ENE) 21:11:56 145.860
DELFI C3 15 Dec 21:08:41 21:12:41 75° 258° (WSW) 21:16:42 145.870
ESTCUBE 1 15 Dec 21:13:28 21:13:57 10° 55° (NE) 21:14:26 437.505/2401.250
TIGRISAT 15 Dec 21:21:36 21:24:56 21° 93° (E) 21:28:18 435.000
UNISAT 6 15 Dec 21:25:01 21:28:37 25° 94° (E) 21:32:16 437.425
EO-88 15 Dec 21:29:52 21:33:31 87° 258° (WSW) 21:37:12 145.990 - 145.960
BEESAT 2 15 Dec 21:35:11 21:39:12 73° 308° (NW) 21:43:17 435.950
PRISM 15 Dec 21:44:49 21:45:39 11° 88° (E) 21:46:30 437.425
LO-87 15 Dec 21:57:22 22:00:18 25° 68° (ENE) 22:03:15 145.935 - 145.965
SO-50 15 Dec 22:07:07 22:10:26 19° 32° (NNE) 22:13:47 436.795
AO-85 15 Dec 22:11:26 22:15:20 69° 124° (SE) 22:19:29 145.980
FO-29 15 Dec 22:11:29 22:17:43 35° 299° (WNW) 22:23:19 435.910
RS-15 15 Dec 22:23:48 22:35:40 60° 41° (NE) 22:46:50 29.354- 29.394
BEESAT 3 15 Dec 22:33:01 22:34:52 13° 331° (NNW) 22:36:42 437.485
VELOX 1 15 Dec 22:40:13 22:42:03 12° 57° (ENE) 22:43:54 145.980
ESTCUBE 1 15 Dec 22:45:24 22:49:54 72° 74° (ENE) 22:54:26 437.505/2401.250
TIGRISAT 15 Dec 22:57:42 23:01:47 42° 290° (WNW) 23:05:56 435.000
UNISAT 6 15 Dec 23:01:26 23:05:24 36° 291° (WNW) 23:09:26 437.425
SPROUT 15 Dec 23:09:04 23:12:49 32° 68° (ENE) 23:16:36 437.525
NANOSAT C BR1 15 Dec 23:09:43 23:10:29 10° 88° (E) 23:11:15 145.865
BEESAT 2 15 Dec 23:15:18 23:17:39 15° 329° (NNW) 23:20:00 435.950
PRISM 15 Dec 23:17:20 23:21:27 77° 286° (WNW) 23:25:31 437.425
EO-79 15 Dec 23:24:06 23:26:56 17° 91° (E) 23:29:46 145.935-145.965
LO-87 15 Dec 23:30:45 23:33:39 23° 265° (W) 23:36:33 145.935 - 145.965
FALCONSAT 3 15 Dec 23:40:07 23:42:05 14° 177° (S) 23:44:04 435.103
POLYITAN 1 15 Dec 23:46:47 23:50:31 29° 96° (E) 23:54:14 437.675
SO-50 15 Dec 23:46:54 23:51:35 83° 53° (NE) 23:56:18 436.795
AO-85 15 Dec 23:53:11 23:56:13 20° 326° (NW) 23:59:25 145.980
AIST 2D 15 Dec 23:54:35 23:58:07 64° 284° (WNW) 00:01:37 435.315
QB50P2 16 Dec 00:12:18 00:16:30 61° 101° (E) 00:20:41 145.880/145.840
VELOX 1 16 Dec 00:13:21 00:17:49 89° 255° (WSW) 00:22:18 145.980
DUCHIFAT 1 16 Dec 00:15:23 00:19:26 45° 99° (E) 00:23:28 145.980
50 SAT 16 Dec 00:16:51 00:19:03 18° 66° (ENE) 00:21:15 437.505
ESTCUBE 1 16 Dec 00:25:00 00:27:13 13° 272° (W) 00:29:27 437.505/2401.250
RS-15 16 Dec 00:36:51 00:48:01 52° 248° (WSW) 00:58:39 29.354- 29.394
PCSat 16 Dec 00:37:16 00:38:38 11° 18° (NNE) 00:39:59 145.827
NANOSAT C BR1 16 Dec 00:42:31 00:46:44 81° 286° (WNW) 00:50:57 145.865
SPROUT 16 Dec 00:45:08 00:48:44 26° 265° (W) 00:52:21 437.525
UKube-1 16 Dec 00:47:04 00:50:52 31° 67° (ENE) 00:54:42 .
BUGSAT 1 16 Dec 00:51:06 00:54:33 26° 95° (E) 00:57:59 437.445
EO-79 16 Dec 00:58:53 01:02:57 48° 289° (WNW) 01:07:01 145.935-145.965
DX 1 16 Dec 01:04:57 01:09:19 74° 75° (ENE) 01:13:42 434.975-435.025
Oscar 19 16 Dec 01:07:49 01:12:10 26° 94° (E) 01:16:29 437.125/150
FALCONSAT 3 16 Dec 01:19:02 01:20:20 12° 192° (SSW) 01:21:38 435.103
BEESAT 16 Dec 01:19:46 01:22:10 14° 57° (ENE) 01:24:35 436.000
POLYITAN 1 16 Dec 01:22:35 01:26:14 29° 293° (WNW) 01:29:53 437.675
SO-50 16 Dec 01:28:54 01:31:26 15° 250° (WSW) 01:34:00 436.795
AO-91 16 Dec 01:37:54 01:41:11 38° 98° (E) 01:44:21 145.960
ITUPSAT 1 16 Dec 01:47:25 01:51:09 23° 62° (ENE) 01:54:53 437.325
50 SAT 16 Dec 01:48:04 01:50:49 27° 263° (W) 01:53:35 437.505
QB50P2 16 Dec 01:49:18 01:51:50 16° 299° (WNW) 01:54:22 145.880/145.840
DUCHIFAT 1 16 Dec 01:51:45 01:54:48 20° 297° (WNW) 01:57:50 145.980
VELOX 1 16 Dec 01:54:34 01:54:54 10° 273° (W) 01:55:13 145.980
Gurwin Techsat 1B 16 Dec 01:59:53 02:05:07 54° 100° (E) 02:10:19 435.225
CUBESAT XI-V 16 Dec 02:13:34 02:16:21 16° 59° (ENE) 02:19:09 437.345
PCSat 16 Dec 02:19:04 02:23:52 31° 43° (NE) 02:28:39 145.827
YUBILEINY 16 Dec 02:20:13 02:28:10 40° 85° (E) 02:36:10 435.215
MOZHAYETS 4 16 Dec 02:21:32 02:26:01 62° 73° (ENE) 02:30:33
NANOSAT C BR1 16 Dec 02:21:32 02:21:42 10° 303° (WNW) 02:21:53 145.865
UKube-1 16 Dec 02:23:06 02:26:52 29° 264° (W) 02:30:39 .
BUGSAT 1 16 Dec 02:26:22 02:29:53 29° 293° (WNW) 02:33:25 437.445
AO-7 16 Dec 02:41:30 02:48:06 25° 92° (E) 02:54:39 .
DX 1 16 Dec 02:44:07 02:46:00 12° 271° (W) 02:47:54 434.975-435.025
Oscar 19 16 Dec 02:46:42 02:51:41 46° 292° (WNW) 02:56:37 437.125/150
BEESAT 16 Dec 02:54:30 02:59:16 87° 255° (WSW) 03:04:03 436.000
AO-91 16 Dec 03:15:24 03:17:21 14° 298° (WNW) 03:19:16 145.960
M-CUBED/EXP-1 PRIME 16 Dec 03:18:42 03:22:08 21° 97° (E) 03:25:24 437.505
ITUPSAT 1 16 Dec 03:24:06 03:28:41 47° 260° (W) 03:33:18 437.325
BEESAT 3 16 Dec 03:29:16 03:32:43 28° 42° (NE) 03:36:08 437.485
Gurwin Techsat 1B 16 Dec 03:40:29 03:44:43 25° 299° (WNW) 03:48:55 435.225
CUBESAT XI-V 16 Dec 03:48:29 03:53:09 73° 258° (WSW) 03:57:52 437.345
MOZHAYETS 4 16 Dec 04:00:52 04:03:36 16° 270° (W) 04:06:21
KKS-1 16 Dec 04:01:02 04:05:05 35° 67° (ENE) 04:09:08 437.445
ITAMSAT 1 16 Dec 04:01:43 04:06:50 57° 101° (E) 04:11:55 435.822/435.867
PCSat 16 Dec 04:02:16 04:07:33 55° 243° (WSW) 04:12:49 145.827
BEESAT 2 16 Dec 04:12:48 04:16:10 25° 40° (NE) 04:19:31 435.950
YUBILEINY 16 Dec 04:16:11 04:24:45 53° 287° (WNW) 04:33:23 435.215
AO-7 16 Dec 04:33:20 04:41:45 81° 292° (WNW) 04:50:07 .
DOVE 4 16 Dec 04:33:41 04:37:23 25° 92° (E) 04:40:54 437.250
BEESAT 16 Dec 04:36:33 04:37:44 11° 273° (W) 04:38:56 436.000
STARS 16 Dec 04:39:45 04:43:44 35° 68° (ENE) 04:47:43 437.465
M-CUBED/EXP-1 PRIME 16 Dec 04:52:22 04:56:44 47° 296° (WNW) 05:00:51 437.505
AO-85 16 Dec 04:59:06 05:03:03 26° 39° (NE) 05:07:14 145.980
BEESAT 3 16 Dec 05:06:41 05:10:20 37° 241° (WSW) 05:13:54 437.485
XW-2C 16 Dec 05:27:57 05:30:17 15° 91° (E) 05:32:37 145.795 - 145.815
HO-68 16 Dec 05:35:47 05:37:07 11° 82° (E) 05:38:27 435.675
KKS-1 16 Dec 05:37:52 05:41:40 27° 265° (W) 05:45:29 437.445
CUTE-I 16 Dec 05:39:07 05:43:00 20° 91° (E) 05:46:50 437.470
ITAMSAT 1 16 Dec 05:41:56 05:45:55 23° 300° (WNW) 05:49:53 435.822/435.867
BEESAT 2 16 Dec 05:50:13 05:54:06 46° 239° (WSW) 05:57:55 435.950
LilacSat-2 16 Dec 06:05:20 06:09:04 42° 98° (E) 06:12:45 437.200
NO-84 16 Dec 06:05:53 06:08:20 23° 133° (SE) 06:10:56 435.350 FM
DOVE 4 16 Dec 06:11:03 06:15:11 36° 292° (WNW) 06:19:07 437.250
NUDT-PHONESAT 16 Dec 06:15:05 06:18:32 34° 97° (E) 06:21:58 437.300
STARS 16 Dec 06:16:26 06:20:07 26° 265° (W) 06:23:49 437.465
XW-2D 16 Dec 06:17:26 06:21:15 56° 101° (E) 06:25:01 145.860 - 145.880
YUBILEINY 16 Dec 06:20:30 06:24:08 13° 313° (NW) 06:27:47 435.215
KAITUO 1B 16 Dec 06:21:35 06:25:15 43° 99° (E) 06:28:51 145.475/437.950
STRAND 1 16 Dec 06:25:42 06:30:40 53° 70° (ENE) 06:35:39 437.568
AO-7 16 Dec 06:27:11 06:33:22 24° 313° (NW) 06:39:33 .
XW-2B 16 Dec 06:33:20 06:37:14 83° 106° (ESE) 06:41:04 145.730 - 145.750
CUTE 1.7 + AOD 2 16 Dec 06:33:56 06:37:22 23° 93° (E) 06:40:47 437.475
AO-85 16 Dec 06:39:05 06:43:48 62° 238° (WSW) 06:48:51 145.980
FO-29 16 Dec 06:39:37 06:46:35 37° 61° (ENE) 06:53:28 435.910
XW-2F 16 Dec 06:44:00 06:47:52 79° 282° (WNW) 06:51:40 145.980 - 146.000
XW-2C 16 Dec 07:00:59 07:04:43 46° 288° (WNW) 07:08:24 145.795 - 145.815
CUTE-I 16 Dec 07:18:12 07:23:28 62° 289° (WNW) 07:28:42 437.470
HO-68 16 Dec 07:19:14 07:26:21 61° 102° (ESE) 07:33:23 435.675
UWE-3 16 Dec 07:34:21 07:38:18 34° 97° (E) 07:42:21 435.000/436.395/437.385
CUBEBUG 2 16 Dec 07:38:00 07:42:14 64° 101° (E) 07:46:35 437.445
LilacSat-2 16 Dec 07:40:20 07:43:01 18° 296° (WNW) 07:45:42 437.200
NO-84 16 Dec 07:42:20 07:45:21 47° 333° (NNW) 07:48:36 435.350 FM
SEEDS 16 Dec 07:42:47 07:47:04 74° 103° (ESE) 07:51:17 437.485
NUDT-PHONESAT 16 Dec 07:49:21 07:52:10 20° 294° (WNW) 07:54:59 437.300
XW-2D 16 Dec 07:52:52 07:54:58 14° 298° (WNW) 07:57:03 145.860 - 145.880
ZACube-1 16 Dec 07:55:40 07:59:34 31° 96° (E) 08:03:32 437.345
KAITUO 1B 16 Dec 07:56:22 07:58:54 17° 296° (WNW) 08:01:24 145.475/437.950
AAUSAT CUBESAT 2 16 Dec 07:56:40 08:00:42 45° 98° (E) 08:04:41 437.432
XW-2A 16 Dec 07:57:23 08:00:42 44° 99° (E) 08:04:00 145.665 - 145.685
O/OREOS (USA 219) 16 Dec 08:00:27 08:04:42 39° 107° (ESE) 08:08:57 437.305
STRAND 1 16 Dec 08:06:13 08:10:09 22° 268° (W) 08:14:06 437.568
CUTE 1.7 + AOD 2 16 Dec 08:09:20 08:13:18 37° 291° (WNW) 08:17:16 437.475
XW-2B 16 Dec 08:10:05 08:10:46 10° 301° (WNW) 08:11:26 145.730 - 145.750
Oscar 11 16 Dec 08:12:36 08:16:20 27° 94° (E) 08:20:02 .
TIGRISAT 16 Dec 08:23:03 08:26:35 26° 66° (ENE) 08:30:06 435.000
FO-29 16 Dec 08:23:31 08:31:13 60° 260° (W) 08:38:57 435.910
UNISAT 6 16 Dec 08:26:34 08:30:18 30° 67° (ENE) 08:34:02 437.425
AO-73 16 Dec 08:28:18 08:32:38 59° 101° (E) 08:37:01 145.935
PRISM 16 Dec 08:36:11 08:38:08 13° 59° (ENE) 08:40:03 437.425
DELFI C3 16 Dec 08:44:35 08:45:49 11° 88° (E) 08:47:03 145.870
CUTE-I 16 Dec 09:01:02 09:02:28 11° 309° (NW) 09:03:54 437.470
HO-68 16 Dec 09:07:31 09:13:42 33° 302° (WNW) 09:19:50 435.675
UWE-3 16 Dec 09:11:02 09:14:39 26° 293° (WNW) 09:18:19 435.000/436.395/437.385
CUBEBUG 2 16 Dec 09:15:56 09:18:24 15° 298° (WNW) 09:20:55 437.445
SEEDS 16 Dec 09:20:05 09:22:10 13° 300° (WNW) 09:24:14 437.485
NO-84 16 Dec 09:20:35 09:23:13 21° 355° (N) 09:26:00 435.350 FM
XW-2A 16 Dec 09:31:13 09:33:02 14° 296° (WNW) 09:34:51 145.665 - 145.685
ZACube-1 16 Dec 09:32:01 09:35:47 29° 293° (WNW) 09:39:37 437.345
AAUSAT CUBESAT 2 16 Dec 09:32:51 09:35:50 19° 296° (WNW) 09:38:48 437.432
O/OREOS (USA 219) 16 Dec 09:40:16 09:44:12 28° 306° (NW) 09:48:09 437.305
Oscar 11 16 Dec 09:48:34 09:52:29 33° 292° (WNW) 09:56:23 .
TIGRISAT 16 Dec 09:59:17 10:03:10 33° 263° (W) 10:07:02 435.000
UNISAT 6 16 Dec 10:03:18 10:07:00 28° 265° (W) 10:10:42 437.425
NANOSAT C BR1 16 Dec 10:04:04 10:05:54 13° 59° (ENE) 10:07:43 145.865
Max Valier Satellite 16 Dec 10:04:59 10:08:43 62° 101° (E) 10:12:25 145.860
AO-73 16 Dec 10:05:38 10:08:26 17° 298° (WNW) 10:11:17 145.935
PRISM 16 Dec 10:08:39 10:12:49 75° 257° (WSW) 10:17:00 437.425
FO-29 16 Dec 10:14:42 10:17:43 12° 280° (W) 10:20:44 435.910
DELFI C3 16 Dec 10:17:04 10:21:00 67° 287° (WNW) 10:24:54 145.870
EO-79 16 Dec 10:19:12 10:22:14 20° 63° (ENE) 10:25:16 145.935-145.965
EO-88 16 Dec 10:28:49 10:32:31 82° 102° (ESE) 10:36:11 145.990 - 145.960
AIST 2D 16 Dec 10:30:49 10:34:17 66° 75° (ENE) 10:37:49 435.315
ESTCUBE 1 16 Dec 10:36:43 10:38:40 12° 88° (E) 10:40:36 437.505/2401.250
POLYITAN 1 16 Dec 10:41:52 10:45:35 32° 68° (ENE) 10:49:19 437.675
LO-87 16 Dec 10:54:10 10:56:52 20° 94° (E) 10:59:34 145.935 - 145.965
NO-84 16 Dec 10:58:14 11:01:16 27° 16° (NNE) 11:04:31 435.350 FM
nSIGHT-1 16 Dec 11:02:25 11:05:16 30° 142° (SE) 11:08:09 .
